Time,TemperatureF,DewpointF,PressureIn,WindDirection,WindDirectionDegrees,WindSpeedMPH,WindSpeedGustMPH,Humidity,HourlyPrecipIn,Conditions,Clouds,dailyrainin,SoftwareType,DateUTC
2013-03-06 00:00:00,24.8,23.0,29.91,SW,232,7.0,16.0,93,0.00,,,0.00,WUHU216DAVISVP2,2013-03-06 05:00:00,
2013-03-06 00:05:00,24.8,23.0,29.91,WSW,246,4.0,15.0,93,0.00,,,0.00,WUHU216DAVISVP2,2013-03-06 05:05:00,
2013-03-06 00:10:00,24.9,23.4,29.91,WSW,243,4.0,16.0,94,0.00,,,0.00,WUHU216DAVISVP2,2013-03-06 05:10:00,
2013-03-06 00:15:00,25.0,23.5,29.91,WSW,240,9.0,16.0,94,0.00,,,0.00,WUHU216DAVISVP2,2013-03-06 05:15:00,
2013-03-06 00:20:00,25.0,23.5,29.91,WSW,252,5.0,15.0,94,0.00,,,0.00,WUHU216DAVISVP2,2013-03-06 05:20:00,
2013-03-06 00:25:00,25.1,23.6,29.91,WSW,246,11.0,14.0,94,0.00,,,0.00,WUHU216DAVISVP2,2013-03-06 05:25:00,
2013-03-06 00:30:00,25.2,23.7,29.91,SW,224,7.0,15.0,94,0.00,,,0.00,WUHU216DAVISVP2,2013-03-06 05:30:00,
2013-03-06 00:35:00,25.3,23.8,29.91,WSW,252,2.0,15.0,94,0.00,,,0.00,WUHU216DAVISVP2,2013-03-06 05:35:00,
2013-03-06 00:40:00,25.3,23.8,29.91,SW,224,6.0,15.0,94,0.00,,,0.00,WUHU216DAVISVP2,2013-03-06 05:40:00,
2013-03-06 00:45:00,25.3,23.8,29.91,SSW,197,10.0,16.0,94,0.00,,,0.00,WUHU216DAVISVP2,2013-03-06 05:45:00,
2013-03-06 00:50:00,25.4,23.9,29.91,SW,217,7.0,16.0,94,0.00,,,0.00,WUHU216DAVISVP2,2013-03-06 05:50:00,
2013-03-06 00:55:00,25.5,24.0,29.91,WSW,245,6.0,15.0,94,0.00,,,0.00,WUHU216DAVISVP2,2013-03-06 05:55:00,
2013-03-06 01:00:00,25.5,24.0,29.91,SW,222,8.0,15.0,94,0.00,,,0.00,WUHU216DAVISVP2,2013-03-06 06:00:00,
2013-03-06 01:05:00,25.5,24.0,29.91,WSW,239,8.0,14.0,94,0.00,,,0.00,WUHU216DAVISVP2,2013-03-06 06:05:00,
2013-03-06 01:10:00,25.6,24.1,29.91,SSW,212,3.0,13.0,94,0.00,,,0.00,WUHU216DAVISVP2,2013-03-06 06:10:00,
2013-03-06 01:15:00,25.7,24.2,29.91,WSW,248,5.0,13.0,94,0.00,,,0.00,WUHU216DAVISVP2,2013-03-06 06:15:00,
2013-03-06 01:20:00,25.7,24.2,29.91,SW,226,3.0,11.0,94,0.00,,,0.00,WUHU216DAVISVP2,2013-03-06 06:20:00,
2013-03-06 01:25:00,25.8,24.3,29.91,SW,229,6.0,11.0,94,0.00,,,0.00,WUHU216DAVISVP2,2013-03-06 06:25:00,
2013-03-06 01:30:00,25.8,24.3,29.91,SSE,158,4.0,12.0,94,0.00,,,0.00,WUHU216DAVISVP2,2013-03-06 06:30:00,
2013-03-06 01:35:00,25.9,24.6,29.91,SW,217,5.0,12.0,95,0.00,,,0.00,WUHU216DAVISVP2,2013-03-06 06:35:00,
2013-03-06 01:40:00,25.9,24.6,29.91,WSW,249,5.0,11.0,95,0.00,,,0.00,WUHU216DAVISVP2,2013-03-06 06:40:00,
2013-03-06 01:45:00,26.0,24.8,29.91,WSW,250,8.0,11.0,95,0.00,,,0.00,WUHU216DAVISVP2,2013-03-06 06:45:00,
2013-03-06 01:50:00,26.1,24.8,29.91,SSW,213,5.0,12.0,95,0.00,,,0.00,WUHU216DAVISVP2,2013-03-06 06:50:00,
2013-03-06 01:55:00,26.2,24.9,29.91,SW,236,6.0,12.0,95,0.00,,,0.00,WUHU216DAVISVP2,2013-03-06 06:55:00,
2013-03-06 02:00:00,26.3,25.0,29.92,SW,224,6.0,11.0,95,0.00,,,0.00,WUHU216DAVISVP2,2013-03-06 07:00:00,
2013-03-06 02:05:00,26.4,25.1,29.92,SW,225,6.0,11.0,95,0.00,,,0.00,WUHU216DAVISVP2,2013-03-06 07:05:00,
2013-03-06 02:10:00,26.5,25.0,29.92,SSE,166,4.0,11.0,94,0.00,,,0.00,WUHU216DAVISVP2,2013-03-06 07:10:00,
2013-03-06 02:15:00,26.6,25.1,29.92,SSW,211,6.0,11.0,94,0.00,,,0.00,WUHU216DAVISVP2,2013-03-06 07:15:00,
2013-03-06 02:20:00,26.7,25.2,29.92,SW,225,5.0,10.0,94,0.00,,,0.00,WUHU216DAVISVP2,2013-03-06 07:20:00,
2013-03-06 02:25:00,26.7,25.2,29.92,SSW,212,3.0,10.0,94,0.00,,,0.00,WUHU216DAVISVP2,2013-03-06 07:25:00,
2013-03-06 02:30:00,26.9,25.1,29.92,SSW,204,4.0,9.0,93,0.00,,,0.00,WUHU216DAVISVP2,2013-03-06 07:30:00,
2013-03-06 02:35:00,26.9,25.1,29.92,WSW,238,4.0,9.0,93,0.00,,,0.00,WUHU216DAVISVP2,2013-03-06 07:35:00,
2013-03-06 02:40:00,26.8,25.0,29.92,SW,232,7.0,9.0,93,0.00,,,0.00,WUHU216DAVISVP2,2013-03-06 07:40:00,
2013-03-06 02:45:00,26.8,25.0,29.92,SW,216,3.0,9.0,93,0.00,,,0.00,WUHU216DAVISVP2,2013-03-06 07:45:00,
2013-03-06 02:50:00,26.7,24.9,29.92,SW,229,5.0,9.0,93,0.00,,,0.00,WUHU216DAVISVP2,2013-03-06 07:50:00,
2013-03-06 02:55:00,26.7,24.9,29.92,SW,235,4.0,9.0,93,0.00,,,0.00,WUHU216DAVISVP2,2013-03-06 07:55:00,
2013-03-06 03:00:00,26.7,24.9,29.92,SSW,203,6.0,8.0,93,0.00,,,0.00,WUHU216DAVISVP2,2013-03-06 08:00:00,
2013-03-06 03:05:00,26.7,24.9,29.92,SW,215,3.0,9.0,93,0.00,,,0.00,WUHU216DAVISVP2,2013-03-06 08:05:00,
2013-03-06 03:10:00,26.7,24.9,29.92,SW,214,4.0,9.0,93,0.00,,,0.00,WUHU216DAVISVP2,2013-03-06 08:10:00,
2013-03-06 03:15:00,26.8,24.7,29.92,SW,236,5.0,9.0,92,0.00,,,0.00,WUHU216DAVISVP2,2013-03-06 08:15:00,
2013-03-06 03:20:00,26.8,24.7,29.92,WSW,243,7.0,9.0,92,0.00,,,0.00,WUHU216DAVISVP2,2013-03-06 08:20:00,
2013-03-06 03:25:00,26.9,24.8,29.92,SSW,198,4.0,8.0,92,0.00,,,0.00,WUHU216DAVISVP2,2013-03-06 08:25:00,
2013-03-06 03:30:00,26.9,24.8,29.92,SSW,211,3.0,10.0,92,0.00,,,0.00,WUHU216DAVISVP2,2013-03-06 08:30:00,
2013-03-06 03:35:00,26.9,24.8,29.92,SW,221,3.0,10.0,92,0.00,,,0.00,WUHU216DAVISVP2,2013-03-06 08:35:00,
2013-03-06 03:40:00,27.0,25.0,29.92,SE,146,6.0,9.0,92,0.00,,,0.00,WUHU216DAVISVP2,2013-03-06 08:40:00,
2013-03-06 03:45:00,27.1,24.8,29.93,SSW,196,1.0,9.0,91,0.00,,,0.00,WUHU216DAVISVP2,2013-03-06 08:45:00,
2013-03-06 03:50:00,27.1,24.8,29.93,SSE,161,2.0,10.0,91,0.00,,,0.00,WUHU216DAVISVP2,2013-03-06 08:50:00,
2013-03-06 03:55:00,27.2,24.9,29.93,WSW,240,6.0,10.0,91,0.00,,,0.00,WUHU216DAVISVP2,2013-03-06 08:55:00,
2013-03-06 04:00:00,27.2,24.9,29.93,SW,218,6.0,9.0,91,0.00,,,0.00,WUHU216DAVISVP2,2013-03-06 09:00:00,
2013-03-06 04:05:00,27.3,25.0,29.93,SSW,212,6.0,9.0,91,0.00,,,0.00,WUHU216DAVISVP2,2013-03-06 09:05:00,
2013-03-06 04:10:00,27.4,25.1,29.93,SSW,197,8.0,10.0,91,0.00,,,0.00,WUHU216DAVISVP2,2013-03-06 09:10:00,
2013-03-06 04:15:00,27.4,24.8,29.93,SW,232,3.0,10.0,90,0.00,,,0.00,WUHU216DAVISVP2,2013-03-06 09:15:00,
2013-03-06 04:20:00,27.5,24.9,29.93,South,169,4.0,10.0,90,0.00,,,0.00,WUHU216DAVISVP2,2013-03-06 09:20:00,
2013-03-06 04:25:00,27.5,24.9,29.93,SW,228,9.0,10.0,90,0.00,,,0.00,WUHU216DAVISVP2,2013-03-06 09:25:00,
2013-03-06 04:30:00,27.6,25.0,29.94,SW,233,5.0,10.0,90,0.00,,,0.00,WUHU216DAVISVP2,2013-03-06 09:30:00,
2013-03-06 04:35:00,27.7,25.1,29.93,WSW,244,3.0,10.0,90,0.00,,,0.00,WUHU216DAVISVP2,2013-03-06 09:35:00,
2013-03-06 04:40:00,27.8,25.2,29.94,WSW,242,4.0,10.0,90,0.00,,,0.00,WUHU216DAVISVP2,2013-03-06 09:40:00,
2013-03-06 04:45:00,27.8,25.2,29.94,WSW,248,5.0,9.0,90,0.00,,,0.00,WUHU216DAVISVP2,2013-03-06 09:45:00,
2013-03-06 04:50:00,27.9,25.3,29.94,SSW,208,2.0,9.0,90,0.00,,,0.00,WUHU216DAVISVP2,2013-03-06 09:50:00,
2013-03-06 04:55:00,28.0,25.2,29.94,WSW,242,3.0,13.0,89,0.00,,,0.00,WUHU216DAVISVP2,2013-03-06 09:55:00,
2013-03-06 05:00:00,28.0,25.2,29.94,WSW,244,5.0,13.0,89,0.00,,,0.00,WUHU216DAVISVP2,2013-03-06 10:00:00,
2013-03-06 05:05:00,28.1,25.2,29.94,SW,232,4.0,12.0,89,0.00,,,0.00,WUHU216DAVISVP2,2013-03-06 10:05:00,
2013-03-06 05:10:00,28.1,25.3,29.95,SW,218,5.0,12.0,89,0.00,,,0.00,WUHU216DAVISVP2,2013-03-06 10:10:00,
2013-03-06 05:15:00,28.2,25.4,29.95,SW,235,3.0,9.0,89,0.00,,,0.00,WUHU216DAVISVP2,2013-03-06 10:15:00,
2013-03-06 05:20:00,28.3,25.4,29.96,WSW,252,3.0,10.0,89,0.00,,,0.00,WUHU216DAVISVP2,2013-03-06 10:20:00,
2013-03-06 05:25:00,28.3,25.5,29.96,WSW,245,2.0,10.0,89,0.00,,,0.00,WUHU216DAVISVP2,2013-03-06 10:25:00,
2013-03-06 05:30:00,28.4,25.6,29.96,SSW,213,1.0,9.0,89,0.00,,,0.00,WUHU216DAVISVP2,2013-03-06 10:30:00,
2013-03-06 05:35:00,28.5,25.7,29.97,WSW,248,3.0,9.0,89,0.00,,,0.00,WUHU216DAVISVP2,2013-03-06 10:35:00,
2013-03-06 05:40:00,28.6,25.7,29.97,SSW,208,6.0,9.0,89,0.00,,,0.00,WUHU216DAVISVP2,2013-03-06 10:40:00,
2013-03-06 05:45:00,28.7,25.6,29.97,WSW,238,2.0,9.0,88,0.00,,,0.00,WUHU216DAVISVP2,2013-03-06 10:45:00,
2013-03-06 05:50:00,28.7,25.6,29.97,WSW,245,5.0,9.0,88,0.00,,,0.00,WUHU216DAVISVP2,2013-03-06 10:50:00,
2013-03-06 05:55:00,28.8,25.7,29.98,SSW,203,1.0,8.0,88,0.00,,,0.00,WUHU216DAVISVP2,2013-03-06 10:55:00,
2013-03-06 06:00:00,29.0,25.9,29.98,SW,236,6.0,9.0,88,0.00,,,0.00,WUHU216DAVISVP2,2013-03-06 11:00:00,
2013-03-06 06:05:00,29.3,25.9,29.98,West,266,3.0,9.0,87,0.00,,,0.00,WUHU216DAVISVP2,2013-03-06 11:05:00,
2013-03-06 06:10:00,29.4,26.0,29.98,SW,225,4.0,11.0,87,0.00,,,0.00,WUHU216DAVISVP2,2013-03-06 11:10:00,
2013-03-06 06:15:00,29.6,25.9,29.99,WSW,239,4.0,11.0,86,0.00,,,0.00,WUHU216DAVISVP2,2013-03-06 11:15:00,
2013-03-06 06:20:00,29.7,26.0,29.99,SSW,204,3.0,11.0,86,0.00,,,0.00,WUHU216DAVISVP2,2013-03-06 11:20:00,
2013-03-06 06:25:00,29.5,25.8,29.99,SW,224,8.0,10.0,86,0.00,,,0.00,WUHU216DAVISVP2,2013-03-06 11:25:00,
2013-03-06 06:30:00,29.3,25.9,30.00,WSW,239,5.0,10.0,87,0.00,,,0.00,WUHU216DAVISVP2,2013-03-06 11:30:00,
2013-03-06 06:35:00,29.4,26.0,30.00,SW,235,4.0,10.0,87,0.00,,,0.00,WUHU216DAVISVP2,2013-03-06 11:35:00,
2013-03-06 06:40:00,29.5,26.1,30.00,SW,221,6.0,10.0,87,0.00,,,0.00,WUHU216DAVISVP2,2013-03-06 11:40:00,
2013-03-06 06:45:00,29.7,26.0,30.01,SW,225,2.0,10.0,86,0.00,,,0.00,WUHU216DAVISVP2,2013-03-06 11:45:00,
2013-03-06 06:50:00,29.9,25.9,30.01,SW,226,4.0,14.0,85,0.00,,,0.00,WUHU216DAVISVP2,2013-03-06 11:50:00,
2013-03-06 06:55:00,30.0,26.0,30.01,WSW,255,5.0,14.0,85,0.00,,,0.00,WUHU216DAVISVP2,2013-03-06 11:55:00,
2013-03-06 07:00:00,30.0,26.0,30.02,SW,231,3.0,13.0,85,0.00,,,0.00,WUHU216DAVISVP2,2013-03-06 12:00:00,
2013-03-06 07:05:00,30.0,26.0,30.02,WSW,242,4.0,13.0,85,0.00,,,0.00,WUHU216DAVISVP2,2013-03-06 12:05:00,
2013-03-06 07:10:00,30.0,26.0,30.02,WSW,248,2.0,13.0,85,0.00,,,0.00,WUHU216DAVISVP2,2013-03-06 12:10:00,
2013-03-06 07:15:00,30.0,26.0,30.03,WSW,245,3.0,12.0,85,0.00,,,0.00,WUHU216DAVISVP2,2013-03-06 12:15:00,
2013-03-06 07:20:00,30.0,26.0,30.03,WSW,246,6.0,12.0,85,0.00,,,0.00,WUHU216DAVISVP2,2013-03-06 12:20:00,
2013-03-06 07:25:00,30.0,26.0,30.03,WSW,243,6.0,8.0,85,0.00,,,0.00,WUHU216DAVISVP2,2013-03-06 12:25:00,
2013-03-06 07:30:00,30.0,26.0,30.04,WSW,245,2.0,7.0,85,0.00,,,0.00,WUHU216DAVISVP2,2013-03-06 12:30:00,
2013-03-06 07:35:00,30.1,25.8,30.04,WSW,242,3.0,8.0,84,0.00,,,0.00,WUHU216DAVISVP2,2013-03-06 12:35:00,
2013-03-06 07:40:00,30.1,25.8,30.04,WSW,238,5.0,10.0,84,0.00,,,0.00,WUHU216DAVISVP2,2013-03-06 12:40:00,
2013-03-06 07:45:00,30.2,25.9,30.05,WSW,242,4.0,10.0,84,0.00,,,0.00,WUHU216DAVISVP2,2013-03-06 12:45:00,
2013-03-06 07:50:00,30.2,25.9,30.05,WSW,243,3.0,9.0,84,0.00,,,0.00,WUHU216DAVISVP2,2013-03-06 12:50:00,
2013-03-06 07:55:00,30.2,25.9,30.05,West,272,2.0,9.0,84,0.00,,,0.00,WUHU216DAVISVP2,2013-03-06 12:55:00,
2013-03-06 08:00:00,30.3,26.0,30.05,WSW,246,3.0,7.0,84,0.00,,,0.00,WUHU216DAVISVP2,2013-03-06 13:00:00,
2013-03-06 08:05:00,30.3,26.0,30.05,SSW,210,2.0,8.0,84,0.00,,,0.00,WUHU216DAVISVP2,2013-03-06 13:05:00,
2013-03-06 08:10:00,30.4,26.1,30.05,SW,233,6.0,9.0,84,0.00,,,0.00,WUHU216DAVISVP2,2013-03-06 13:10:00,
2013-03-06 08:15:00,30.5,26.2,30.06,SW,233,3.0,9.0,84,0.00,,,0.00,WUHU216DAVISVP2,2013-03-06 13:15:00,
2013-03-06 08:20:00,30.5,26.2,30.06,WSW,245,6.0,9.0,84,0.00,,,0.00,WUHU216DAVISVP2,2013-03-06 13:20:00,
2013-03-06 08:25:00,30.6,26.3,30.06,West,280,2.0,9.0,84,0.00,,,0.00,WUHU216DAVISVP2,2013-03-06 13:25:00,
2013-03-06 08:30:00,30.6,26.0,30.06,SW,221,5.0,7.0,83,0.00,,,0.00,WUHU216DAVISVP2,2013-03-06 13:30:00,
2013-03-06 08:35:00,30.8,26.2,30.07,SSW,211,3.0,9.0,83,0.00,,,0.00,WUHU216DAVISVP2,2013-03-06 13:35:00,
2013-03-06 08:40:00,30.8,26.2,30.07,SW,228,6.0,11.0,83,0.00,,,0.00,WUHU216DAVISVP2,2013-03-06 13:40:00,
2013-03-06 08:45:00,30.9,26.3,30.07,SSW,201,7.0,11.0,83,0.00,,,0.00,WUHU216DAVISVP2,2013-03-06 13:45:00,
2013-03-06 08:50:00,31.0,26.4,30.07,SSW,205,2.0,11.0,83,0.00,,,0.00,WUHU216DAVISVP2,2013-03-06 13:50:00,
2013-03-06 08:55:00,31.1,26.5,30.07,SW,215,6.0,11.0,83,0.00,,,0.00,WUHU216DAVISVP2,2013-03-06 13:55:00,
2013-03-06 09:00:00,31.2,26.6,30.07,WNW,283,3.0,11.0,83,0.00,,,0.00,WUHU216DAVISVP2,2013-03-06 14:00:00,
2013-03-06 09:05:00,31.2,26.6,30.07,SW,221,4.0,11.0,83,0.00,,,0.00,WUHU216DAVISVP2,2013-03-06 14:05:00,
2013-03-06 09:10:00,31.3,26.4,30.07,SW,221,9.0,11.0,82,0.00,,,0.00,WUHU216DAVISVP2,2013-03-06 14:10:00,
2013-03-06 09:15:00,31.4,26.8,30.07,SSW,205,5.0,9.0,83,0.00,,,0.00,WUHU216DAVISVP2,2013-03-06 14:15:00,
2013-03-06 09:20:00,31.5,26.9,30.07,West,259,6.0,12.0,83,0.00,,,0.00,WUHU216DAVISVP2,2013-03-06 14:20:00,
2013-03-06 09:25:00,31.5,26.6,30.06,SW,236,11.0,13.0,82,0.00,,,0.00,WUHU216DAVISVP2,2013-03-06 14:25:00,
2013-03-06 09:30:00,31.6,26.7,30.07,WSW,256,8.0,13.0,82,0.00,,,0.00,WUHU216DAVISVP2,2013-03-06 14:30:00,
2013-03-06 09:35:00,31.6,26.7,30.06,West,276,4.0,18.0,82,0.00,,,0.00,WUHU216DAVISVP2,2013-03-06 14:35:00,
2013-03-06 09:40:00,31.7,27.1,30.06,WSW,246,8.0,18.0,83,0.00,,,0.00,WUHU216DAVISVP2,2013-03-06 14:40:00,
2013-03-06 09:45:00,31.7,26.8,30.06,WSW,241,7.0,17.0,82,0.00,,,0.00,WUHU216DAVISVP2,2013-03-06 14:45:00,
2013-03-06 09:50:00,31.8,26.9,30.06,WSW,255,6.0,17.0,82,0.00,,,0.00,WUHU216DAVISVP2,2013-03-06 14:50:00,
2013-03-06 09:55:00,31.8,26.9,30.07,WSW,240,7.0,15.0,82,0.00,,,0.00,WUHU216DAVISVP2,2013-03-06 14:55:00,
2013-03-06 10:00:00,31.8,26.9,30.07,West,277,10.0,15.0,82,0.00,,,0.00,WUHU216DAVISVP2,2013-03-06 15:00:00,
2013-03-06 10:05:00,31.9,27.0,30.07,SW,233,7.0,14.0,82,0.00,,,0.00,WUHU216DAVISVP2,2013-03-06 15:05:00,
2013-03-06 10:10:00,32.0,27.1,30.06,WSW,257,5.0,14.0,82,0.00,,,0.00,WUHU216DAVISVP2,2013-03-06 15:10:00,
2013-03-06 10:15:00,32.2,27.3,30.07,WNW,282,2.0,14.0,82,0.00,,,0.00,WUHU216DAVISVP2,2013-03-06 15:15:00,
2013-03-06 10:20:00,32.4,27.5,30.07,SSW,194,6.0,13.0,82,0.00,,,0.00,WUHU216DAVISVP2,2013-03-06 15:20:00,
2013-03-06 10:25:00,32.6,27.4,30.07,West,281,5.0,14.0,81,0.00,,,0.00,WUHU216DAVISVP2,2013-03-06 15:25:00,
2013-03-06 10:30:00,32.7,27.2,30.07,WSW,243,8.0,14.0,80,0.00,,,0.00,WUHU216DAVISVP2,2013-03-06 15:30:00,
2013-03-06 10:35:00,32.7,27.2,30.08,WNW,294,7.0,14.0,80,0.00,,,0.00,WUHU216DAVISVP2,2013-03-06 15:35:00,
2013-03-06 10:40:00,32.8,27.3,30.09,WNW,293,3.0,13.0,80,0.00,,,0.00,WUHU216DAVISVP2,2013-03-06 15:40:00,
2013-03-06 10:45:00,33.0,27.5,30.09,SW,216,2.0,13.0,80,0.00,,,0.00,WUHU216DAVISVP2,2013-03-06 15:45:00,
2013-03-06 10:50:00,33.2,27.7,30.09,WSW,243,5.0,13.0,80,0.00,,,0.00,WUHU216DAVISVP2,2013-03-06 15:50:00,
2013-03-06 10:55:00,33.3,27.8,30.09,SW,226,3.0,12.0,80,0.00,,,0.00,WUHU216DAVISVP2,2013-03-06 15:55:00,
2013-03-06 11:00:00,33.4,27.9,30.09,SW,226,10.0,12.0,80,0.00,,,0.00,WUHU216DAVISVP2,2013-03-06 16:00:00,
2013-03-06 11:05:00,33.5,28.0,30.09,SW,224,4.0,12.0,80,0.00,,,0.00,WUHU216DAVISVP2,2013-03-06 16:05:00,
2013-03-06 11:10:00,33.5,28.0,30.10,SSW,205,7.0,12.0,80,0.00,,,0.00,WUHU216DAVISVP2,2013-03-06 16:10:00,
2013-03-06 11:15:00,33.6,27.8,30.10,SSW,205,4.0,12.0,79,0.00,,,0.00,WUHU216DAVISVP2,2013-03-06 16:15:00,
2013-03-06 11:20:00,33.9,28.4,30.10,WSW,239,3.0,12.0,80,0.00,,,0.00,WUHU216DAVISVP2,2013-03-06 16:20:00,
2013-03-06 11:25:00,33.9,28.1,30.10,SW,233,6.0,12.0,79,0.00,,,0.00,WUHU216DAVISVP2,2013-03-06 16:25:00,
2013-03-06 11:30:00,34.0,28.2,30.10,WSW,238,4.0,12.0,79,0.00,,,0.00,WUHU216DAVISVP2,2013-03-06 16:30:00,
2013-03-06 11:35:00,34.0,28.2,30.10,SW,233,5.0,11.0,79,0.00,,,0.00,WUHU216DAVISVP2,2013-03-06 16:35:00,
2013-03-06 11:40:00,34.3,28.5,30.11,SW,228,4.0,11.0,79,0.00,,,0.00,WUHU216DAVISVP2,2013-03-06 16:40:00,
2013-03-06 11:45:00,34.4,28.3,30.11,SW,214,6.0,10.0,78,0.00,,,0.00,WUHU216DAVISVP2,2013-03-06 16:45:00,
2013-03-06 11:50:00,34.5,28.4,30.10,WSW,248,11.0,12.0,78,0.00,,,0.00,WUHU216DAVISVP2,2013-03-06 16:50:00,
2013-03-06 11:55:00,34.6,28.8,30.10,WSW,256,4.0,12.0,79,0.00,,,0.00,WUHU216DAVISVP2,2013-03-06 16:55:00,
2013-03-06 12:00:00,35.0,28.9,30.10,WSW,241,3.0,12.0,78,0.00,,,0.00,WUHU216DAVISVP2,2013-03-06 17:00:00,
2013-03-06 12:05:00,35.1,28.6,30.10,WSW,239,6.0,11.0,77,0.00,,,0.00,WUHU216DAVISVP2,2013-03-06 17:05:00,
2013-03-06 12:10:00,35.1,28.6,30.10,West,262,2.0,12.0,77,0.00,,,0.00,WUHU216DAVISVP2,2013-03-06 17:10:00,
2013-03-06 12:15:00,35.1,28.6,30.10,SW,235,8.0,13.0,77,0.00,,,0.00,WUHU216DAVISVP2,2013-03-06 17:15:00,
2013-03-06 12:20:00,34.9,28.5,30.10,West,264,5.0,13.0,77,0.00,,,0.00,WUHU216DAVISVP2,2013-03-06 17:20:00,
2013-03-06 12:25:00,35.0,28.6,30.10,WSW,247,6.0,12.0,77,0.00,,,0.00,WUHU216DAVISVP2,2013-03-06 17:25:00,
2013-03-06 12:30:00,35.2,28.7,30.10,SW,225,3.0,12.0,77,0.00,,,0.00,WUHU216DAVISVP2,2013-03-06 17:30:00,
2013-03-06 12:35:00,35.3,28.5,30.10,WSW,250,5.0,10.0,76,0.00,,,0.00,WUHU216DAVISVP2,2013-03-06 17:35:00,
2013-03-06 12:40:00,35.3,28.5,30.11,WSW,249,5.0,10.0,76,0.00,,,0.00,WUHU216DAVISVP2,2013-03-06 17:40:00,
2013-03-06 12:45:00,35.4,28.3,30.11,SW,221,5.0,9.0,75,0.00,,,0.00,WUHU216DAVISVP2,2013-03-06 17:45:00,
2013-03-06 12:50:00,35.4,28.3,30.10,West,276,1.0,8.0,75,0.00,,,0.00,WUHU216DAVISVP2,2013-03-06 17:50:00,
2013-03-06 12:55:00,35.6,28.5,30.10,SSW,193,8.0,8.0,75,0.00,,,0.00,WUHU216DAVISVP2,2013-03-06 17:55:00,
2013-03-06 13:00:00,35.8,28.4,30.11,WSW,239,3.0,10.0,74,0.00,,,0.00,WUHU216DAVISVP2,2013-03-06 18:00:00,
2013-03-06 13:05:00,35.9,28.8,30.11,WSW,246,4.0,10.0,75,0.00,,,0.00,WUHU216DAVISVP2,2013-03-06 18:05:00,
2013-03-06 13:10:00,36.5,29.3,30.11,SSW,205,2.0,10.0,75,0.00,,,0.00,WUHU216DAVISVP2,2013-03-06 18:10:00,
2013-03-06 13:15:00,36.3,28.8,30.10,SSW,203,5.0,10.0,74,0.00,,,0.00,WUHU216DAVISVP2,2013-03-06 18:15:00,
2013-03-06 13:20:00,36.4,29.0,30.10,SW,225,3.0,9.0,74,0.00,,,0.00,WUHU216DAVISVP2,2013-03-06 18:20:00,
2013-03-06 13:25:00,37.1,29.3,30.10,WSW,242,1.0,9.0,73,0.00,,,0.00,WUHU216DAVISVP2,2013-03-06 18:25:00,
2013-03-06 13:30:00,37.4,29.3,30.10,SW,225,8.0,10.0,72,0.00,,,0.00,WUHU216DAVISVP2,2013-03-06 18:30:00,
2013-03-06 13:35:00,37.2,29.1,30.10,WSW,253,4.0,10.0,72,0.00,,,0.00,WUHU216DAVISVP2,2013-03-06 18:35:00,
2013-03-06 13:40:00,37.1,29.0,30.09,WSW,249,3.0,9.0,72,0.00,,,0.00,WUHU216DAVISVP2,2013-03-06 18:40:00,
2013-03-06 13:45:00,36.8,28.7,30.09,WSW,241,6.0,9.0,72,0.00,,,0.00,WUHU216DAVISVP2,2013-03-06 18:45:00,
2013-03-06 13:50:00,36.7,28.9,30.09,West,270,4.0,8.0,73,0.00,,,0.00,WUHU216DAVISVP2,2013-03-06 18:50:00,
2013-03-06 13:55:00,36.8,29.0,30.09,SSE,165,6.0,8.0,73,0.00,,,0.00,WUHU216DAVISVP2,2013-03-06 18:55:00,
2013-03-06 14:00:00,37.1,29.0,30.09,SE,138,1.0,8.0,72,0.00,,,0.00,WUHU216DAVISVP2,2013-03-06 19:00:00,
2013-03-06 14:05:00,37.1,29.0,30.09,WSW,238,6.0,8.0,72,0.00,,,0.00,WUHU216DAVISVP2,2013-03-06 19:05:00,
2013-03-06 14:10:00,37.1,29.0,30.09,West,270,4.0,9.0,72,0.00,,,0.00,WUHU216DAVISVP2,2013-03-06 19:10:00,
2013-03-06 14:15:00,36.9,29.1,30.09,WNW,284,4.0,9.0,73,0.00,,,0.00,WUHU216DAVISVP2,2013-03-06 19:15:00,
2013-03-06 14:20:00,37.3,29.1,30.09,WNW,290,2.0,9.0,72,0.00,,,0.00,WUHU216DAVISVP2,2013-03-06 19:20:00,
2013-03-06 14:25:00,37.8,29.2,30.09,SW,226,5.0,8.0,71,0.00,,,0.00,WUHU216DAVISVP2,2013-03-06 19:25:00,
2013-03-06 14:30:00,37.7,29.1,30.10,WNW,291,3.0,8.0,71,0.00,,,0.00,WUHU216DAVISVP2,2013-03-06 19:30:00,
2013-03-06 14:35:00,37.7,28.9,30.10,West,271,2.0,7.0,70,0.00,,,0.00,WUHU216DAVISVP2,2013-03-06 19:35:00,
2013-03-06 14:40:00,37.7,28.9,30.10,West,271,1.0,7.0,70,0.00,,,0.00,WUHU216DAVISVP2,2013-03-06 19:40:00,
2013-03-06 14:45:00,37.9,29.1,30.10,WSW,246,3.0,7.0,70,0.00,,,0.00,WUHU216DAVISVP2,2013-03-06 19:45:00,
2013-03-06 14:50:00,38.0,29.2,30.10,SW,236,2.0,7.0,70,0.00,,,0.00,WUHU216DAVISVP2,2013-03-06 19:50:00,
2013-03-06 14:55:00,38.0,29.2,30.10,WSW,245,4.0,5.0,70,0.00,,,0.00,WUHU216DAVISVP2,2013-03-06 19:55:00,
2013-03-06 15:00:00,38.0,29.2,30.10,West,259,3.0,5.0,70,0.00,,,0.00,WUHU216DAVISVP2,2013-03-06 20:00:00,
2013-03-06 15:05:00,38.5,29.6,30.10,WNW,283,1.0,7.0,70,0.00,,,0.00,WUHU216DAVISVP2,2013-03-06 20:05:00,
2013-03-06 15:10:00,39.7,30.1,30.10,WSW,255,0.0,7.0,68,0.00,,,0.00,WUHU216DAVISVP2,2013-03-06 20:10:00,
2013-03-06 15:15:00,40.1,29.4,30.10,WSW,245,1.0,6.0,65,0.00,,,0.00,WUHU216DAVISVP2,2013-03-06 20:15:00,
2013-03-06 15:20:00,39.7,29.4,30.10,SW,233,1.0,6.0,66,0.00,,,0.00,WUHU216DAVISVP2,2013-03-06 20:20:00,
2013-03-06 15:25:00,39.5,29.5,30.10,NNE,20,0.0,5.0,67,0.00,,,0.00,WUHU216DAVISVP2,2013-03-06 20:25:00,
2013-03-06 15:30:00,39.4,29.4,30.10,West,276,1.0,4.0,67,0.00,,,0.00,WUHU216DAVISVP2,2013-03-06 20:30:00,
2013-03-06 15:35:00,39.6,29.6,30.09,West,275,0.0,4.0,67,0.00,,,0.00,WUHU216DAVISVP2,2013-03-06 20:35:00,
2013-03-06 15:41:00,40.3,29.5,30.10,WNW,290,1.0,2.0,65,0.00,,,0.00,WUHU216DAVISVP2,2013-03-06 20:41:00,
2013-03-06 15:46:00,40.1,29.4,30.10,WSW,249,0.0,3.0,65,0.00,,,0.00,WUHU216DAVISVP2,2013-03-06 20:46:00,
2013-03-06 15:51:00,40.6,29.8,30.10,South,170,1.0,3.0,65,0.00,,,0.00,WUHU216DAVISVP2,2013-03-06 20:51:00,
2013-03-06 15:56:00,41.6,30.4,30.10,WSW,250,1.0,3.0,64,0.00,,,0.00,WUHU216DAVISVP2,2013-03-06 20:56:00,
2013-03-06 16:01:00,42.0,30.4,30.10,North,5,0.0,3.0,63,0.00,,,0.00,WUHU216DAVISVP2,2013-03-06 21:01:00,
2013-03-06 16:06:00,42.5,30.1,30.10,SE,124,1.0,3.0,61,0.00,,,0.00,WUHU216DAVISVP2,2013-03-06 21:06:00,
2013-03-06 16:11:00,42.0,29.6,30.10,NNW,344,0.0,2.0,61,0.00,,,0.00,WUHU216DAVISVP2,2013-03-06 21:11:00,
2013-03-06 16:15:00,41.4,29.4,30.09,ESE,108,0.0,2.0,62,0.00,,,0.00,WUHU216DAVISVP2,2013-03-06 21:15:00,
2013-03-06 16:20:00,41.6,30.0,30.09,West,281,0.0,2.0,63,0.00,,,0.00,WUHU216DAVISVP2,2013-03-06 21:20:00,
2013-03-06 16:25:00,41.0,29.4,30.10,West,266,2.0,3.0,63,0.00,,,0.00,WUHU216DAVISVP2,2013-03-06 21:25:00,
2013-03-06 16:30:00,40.2,29.1,30.10,WNW,296,0.0,3.0,64,0.00,,,0.00,WUHU216DAVISVP2,2013-03-06 21:30:00,
2013-03-06 16:35:00,39.9,29.2,30.10,WNW,302,1.0,3.0,65,0.00,,,0.00,WUHU216DAVISVP2,2013-03-06 21:35:00,
2013-03-06 16:40:00,39.6,28.9,30.10,WSW,246,0.0,3.0,65,0.00,,,0.00,WUHU216DAVISVP2,2013-03-06 21:40:00,
2013-03-06 16:45:00,39.3,29.0,30.10,NW,306,0.0,2.0,66,0.00,,,0.00,WUHU216DAVISVP2,2013-03-06 21:45:00,
2013-03-06 16:50:00,39.7,29.7,30.10,South,176,0.0,2.0,67,0.00,,,0.00,WUHU216DAVISVP2,2013-03-06 21:50:00,
2013-03-06 16:56:00,40.6,29.8,30.10,East,79,1.0,2.0,65,0.00,,,0.00,WUHU216DAVISVP2,2013-03-06 21:56:00,
2013-03-06 17:01:00,40.3,29.2,30.10,SE,135,1.0,3.0,64,0.00,,,0.00,WUHU216DAVISVP2,2013-03-06 22:01:00,
2013-03-06 17:06:00,40.5,29.4,30.10,East,87,0.0,3.0,64,0.00,,,0.00,WUHU216DAVISVP2,2013-03-06 22:06:00,
2013-03-06 17:11:00,40.7,29.2,30.10,NW,326,1.0,3.0,63,0.00,,,0.00,WUHU216DAVISVP2,2013-03-06 22:11:00,
2013-03-06 17:16:00,39.9,29.2,30.10,NW,311,0.0,4.0,65,0.00,,,0.00,WUHU216DAVISVP2,2013-03-06 22:16:00,
2013-03-06 17:21:00,39.5,28.8,30.11,WNW,297,1.0,4.0,65,0.00,,,0.00,WUHU216DAVISVP2,2013-03-06 22:21:00,
2013-03-06 17:25:00,39.1,28.8,30.11,NNW,346,1.0,4.0,66,0.00,,,0.00,WUHU216DAVISVP2,2013-03-06 22:25:00,
2013-03-06 17:30:00,38.8,28.9,30.11,NNW,346,0.0,4.0,67,0.00,,,0.00,WUHU216DAVISVP2,2013-03-06 22:30:00,
2013-03-06 17:35:00,38.7,29.0,30.11,NNW,347,0.0,3.0,68,0.00,,,0.00,WUHU216DAVISVP2,2013-03-06 22:35:00,
2013-03-06 17:40:00,38.5,28.9,30.11,North,359,0.0,3.0,68,0.00,,,0.00,WUHU216DAVISVP2,2013-03-06 22:40:00,
2013-03-06 17:45:00,38.3,29.1,30.11,North,359,0.0,1.0,69,0.00,,,0.00,WUHU216DAVISVP2,2013-03-06 22:45:00,
2013-03-06 17:50:00,38.2,29.0,30.11,North,359,0.0,0.0,69,0.00,,,0.00,WUHU216DAVISVP2,2013-03-06 22:50:00,
2013-03-06 17:55:00,38.0,28.7,30.12,NW,325,2.0,2.0,69,0.00,,,0.00,WUHU216DAVISVP2,2013-03-06 22:55:00,
2013-03-06 18:01:00,37.9,29.1,30.12,NE,50,0.0,3.0,70,0.00,,,0.00,WUHU216DAVISVP2,2013-03-06 23:01:00,
2013-03-06 18:06:00,37.7,28.5,30.11,East,86,0.0,3.0,69,0.00,,,0.00,WUHU216DAVISVP2,2013-03-06 23:06:00,
2013-03-06 18:11:00,37.7,28.5,30.12,East,79,1.0,4.0,69,0.00,,,0.00,WUHU216DAVISVP2,2013-03-06 23:11:00,
2013-03-06 18:16:00,37.5,28.7,30.12,East,91,2.0,4.0,70,0.00,,,0.00,WUHU216DAVISVP2,2013-03-06 23:16:00,
2013-03-06 18:21:00,37.4,28.6,30.12,East,93,2.0,4.0,70,0.00,,,0.00,WUHU216DAVISVP2,2013-03-06 23:21:00,
2013-03-06 18:26:00,37.3,28.5,30.12,East,95,2.0,4.0,70,0.00,,,0.00,WUHU216DAVISVP2,2013-03-06 23:26:00,
2013-03-06 18:31:00,37.2,28.7,30.12,East,91,2.0,3.0,71,0.00,,,0.00,WUHU216DAVISVP2,2013-03-06 23:31:00,
2013-03-06 18:36:00,37.1,28.6,30.13,SE,128,6.0,8.0,71,0.00,,,0.00,WUHU216DAVISVP2,2013-03-06 23:36:00,
2013-03-06 18:41:00,37.0,28.8,30.13,East,79,3.0,8.0,72,0.00,,,0.00,WUHU216DAVISVP2,2013-03-06 23:41:00,
2013-03-06 18:46:00,36.8,28.6,30.13,SE,135,1.0,8.0,72,0.00,,,0.00,WUHU216DAVISVP2,2013-03-06 23:46:00,
2013-03-06 18:51:00,36.7,28.9,30.13,SE,131,3.0,8.0,73,0.00,,,0.00,WUHU216DAVISVP2,2013-03-06 23:51:00,
2013-03-06 18:56:00,36.5,28.7,30.12,SE,143,1.0,6.0,73,0.00,,,0.00,WUHU216DAVISVP2,2013-03-06 23:56:00,
2013-03-06 19:01:00,36.4,29.0,30.12,SSE,161,3.0,6.0,74,0.00,,,0.00,WUHU216DAVISVP2,2013-03-07 00:01:00,
2013-03-06 19:06:00,36.2,28.8,30.12,SE,134,0.0,6.0,74,0.00,,,0.00,WUHU216DAVISVP2,2013-03-07 00:06:00,
2013-03-06 19:11:00,36.1,28.7,30.12,ESE,120,1.0,6.0,74,0.00,,,0.00,WUHU216DAVISVP2,2013-03-07 00:11:00,
2013-03-06 19:16:00,36.0,28.9,30.12,East,89,1.0,3.0,75,0.00,,,0.00,WUHU216DAVISVP2,2013-03-07 00:16:00,
2013-03-06 19:21:00,35.9,28.7,30.12,ESE,118,0.0,3.0,75,0.00,,,0.00,WUHU216DAVISVP2,2013-03-07 00:21:00,
2013-03-06 19:26:00,35.7,28.9,30.13,SE,125,1.0,3.0,76,0.00,,,0.00,WUHU216DAVISVP2,2013-03-07 00:26:00,
2013-03-06 19:31:00,35.5,28.7,30.13,East,93,3.0,5.0,76,0.00,,,0.00,WUHU216DAVISVP2,2013-03-07 00:31:00,
2013-03-06 19:36:00,35.4,28.9,30.13,ESE,116,1.0,6.0,77,0.00,,,0.00,WUHU216DAVISVP2,2013-03-07 00:36:00,
2013-03-06 19:41:00,35.3,28.8,30.13,ESE,122,2.0,6.0,77,0.00,,,0.00,WUHU216DAVISVP2,2013-03-07 00:41:00,
2013-03-06 19:46:00,35.1,29.0,30.13,ESE,120,4.0,6.0,78,0.00,,,0.00,WUHU216DAVISVP2,2013-03-07 00:46:00,
2013-03-06 19:51:00,35.0,29.2,30.14,ESE,121,2.0,7.0,79,0.00,,,0.00,WUHU216DAVISVP2,2013-03-07 00:51:00,
2013-03-06 19:56:00,34.8,29.0,30.14,ESE,120,2.0,7.0,79,0.00,,,0.00,WUHU216DAVISVP2,2013-03-07 00:56:00,
2013-03-06 20:00:00,34.7,29.2,30.13,ENE,65,4.0,7.0,80,0.00,,,0.00,WUHU216DAVISVP2,2013-03-07 01:00:00,
2013-03-06 20:06:00,34.5,29.0,30.14,East,86,4.0,8.0,80,0.00,,,0.00,WUHU216DAVISVP2,2013-03-07 01:06:00,
2013-03-06 20:10:00,34.3,29.1,30.14,ESE,116,1.0,8.0,81,0.00,,,0.00,WUHU216DAVISVP2,2013-03-07 01:10:00,
2013-03-06 20:15:00,34.1,28.9,30.14,East,91,1.0,8.0,81,0.00,,,0.00,WUHU216DAVISVP2,2013-03-07 01:15:00,
2013-03-06 20:20:00,33.9,29.0,30.14,East,86,3.0,8.0,82,0.00,,,0.00,WUHU216DAVISVP2,2013-03-07 01:20:00,
2013-03-06 20:25:00,33.7,28.8,30.14,ESE,117,3.0,8.0,82,0.00,,,0.00,WUHU216DAVISVP2,2013-03-07 01:25:00,
2013-03-06 20:31:00,33.4,28.8,30.14,East,96,3.0,7.0,83,0.00,,,0.00,WUHU216DAVISVP2,2013-03-07 01:31:00,
2013-03-06 20:36:00,33.3,28.7,30.14,East,89,2.0,5.0,83,0.00,,,0.00,WUHU216DAVISVP2,2013-03-07 01:36:00,
2013-03-06 20:41:00,33.1,28.8,30.14,ESE,110,2.0,5.0,84,0.00,,,0.00,WUHU216DAVISVP2,2013-03-07 01:41:00,
2013-03-06 20:46:00,33.0,28.7,30.15,ESE,103,3.0,5.0,84,0.00,,,0.00,WUHU216DAVISVP2,2013-03-07 01:46:00,
2013-03-06 20:50:00,32.9,28.6,30.15,East,94,3.0,5.0,84,0.00,,,0.00,WUHU216DAVISVP2,2013-03-07 01:50:00,
2013-03-06 20:55:00,32.8,28.8,30.15,ESE,118,3.0,5.0,85,0.00,,,0.00,WUHU216DAVISVP2,2013-03-07 01:55:00,
2013-03-06 21:00:00,32.7,28.7,30.15,SE,127,1.0,6.0,85,0.00,,,0.00,WUHU216DAVISVP2,2013-03-07 02:00:00,
2013-03-06 21:05:00,32.7,28.7,30.15,East,95,2.0,6.0,85,0.00,,,0.00,WUHU216DAVISVP2,2013-03-07 02:05:00,
2013-03-06 21:10:00,32.7,28.7,30.15,East,99,3.0,6.0,85,0.00,,,0.00,WUHU216DAVISVP2,2013-03-07 02:10:00,
2013-03-06 21:15:00,32.6,28.8,30.15,ESE,121,1.0,6.0,86,0.00,,,0.00,WUHU216DAVISVP2,2013-03-07 02:15:00,
2013-03-06 21:20:00,32.6,28.8,30.15,SE,124,3.0,6.0,86,0.00,,,0.00,WUHU216DAVISVP2,2013-03-07 02:20:00,
2013-03-06 21:25:00,32.5,28.7,30.15,ENE,71,1.0,6.0,86,0.00,,,0.00,WUHU216DAVISVP2,2013-03-07 02:25:00,
2013-03-06 21:30:00,32.5,28.7,30.15,ESE,118,2.0,5.0,86,0.00,,,0.00,WUHU216DAVISVP2,2013-03-07 02:30:00,
2013-03-06 21:35:00,32.4,28.6,30.15,SE,129,3.0,5.0,86,0.00,,,0.00,WUHU216DAVISVP2,2013-03-07 02:35:00,
2013-03-06 21:40:00,32.4,28.6,30.15,East,95,1.0,4.0,86,0.00,,,0.00,WUHU216DAVISVP2,2013-03-07 02:40:00,
2013-03-06 21:45:00,32.3,28.6,30.15,ESE,115,1.0,5.0,86,0.00,,,0.00,WUHU216DAVISVP2,2013-03-07 02:45:00,
2013-03-06 21:50:00,32.4,28.7,30.16,ESE,116,2.0,8.0,86,0.00,,,0.00,WUHU216DAVISVP2,2013-03-07 02:50:00,
2013-03-06 21:55:00,32.3,28.6,30.16,SE,132,2.0,8.0,86,0.00,,,0.00,WUHU216DAVISVP2,2013-03-07 02:55:00,
2013-03-06 22:00:00,32.3,28.6,30.16,SE,138,1.0,8.0,86,0.00,,,0.00,WUHU216DAVISVP2,2013-03-07 03:00:00,
2013-03-06 22:05:00,32.3,28.6,30.16,ESE,122,3.0,8.0,86,0.00,,,0.00,WUHU216DAVISVP2,2013-03-07 03:05:00,
2013-03-06 22:11:00,32.3,28.6,30.16,SE,135,2.0,5.0,86,0.00,,,0.00,WUHU216DAVISVP2,2013-03-07 03:11:00,
2013-03-06 22:16:00,32.2,28.5,30.16,SE,136,2.0,5.0,86,0.00,,,0.00,WUHU216DAVISVP2,2013-03-07 03:16:00,
2013-03-06 22:21:00,32.2,28.5,30.16,ESE,120,3.0,5.0,86,0.00,,,0.00,WUHU216DAVISVP2,2013-03-07 03:21:00,
2013-03-06 22:26:00,32.2,28.5,30.16,ESE,117,3.0,6.0,86,0.00,,,0.00,WUHU216DAVISVP2,2013-03-07 03:26:00,
2013-03-06 22:31:00,32.1,28.4,30.16,ESE,115,2.0,6.0,86,0.00,,,0.00,WUHU216DAVISVP2,2013-03-07 03:31:00,
2013-03-06 22:36:00,32.0,28.5,30.16,East,91,3.0,6.0,87,0.00,,,0.00,WUHU216DAVISVP2,2013-03-07 03:36:00,
2013-03-06 22:41:00,32.0,28.5,30.16,East,99,2.0,6.0,87,0.00,,,0.00,WUHU216DAVISVP2,2013-03-07 03:41:00,
2013-03-06 22:46:00,32.0,28.5,30.16,SE,126,4.0,7.0,87,0.00,,,0.00,WUHU216DAVISVP2,2013-03-07 03:46:00,
2013-03-06 22:51:00,32.0,28.5,30.16,SE,141,3.0,7.0,87,0.00,,,0.00,WUHU216DAVISVP2,2013-03-07 03:51:00,
2013-03-06 22:56:00,31.9,28.5,30.16,SE,127,4.0,7.0,87,0.00,,,0.00,WUHU216DAVISVP2,2013-03-07 03:56:00,
2013-03-06 23:01:00,31.9,28.5,30.16,SE,127,4.0,7.0,87,0.00,,,0.00,WUHU216DAVISVP2,2013-03-07 04:01:00,
2013-03-06 23:06:00,31.9,28.4,30.16,SE,127,4.0,5.0,87,0.00,,,0.00,WUHU216DAVISVP2,2013-03-07 04:06:00,
2013-03-06 23:11:00,31.8,28.6,30.16,SE,134,3.0,5.0,88,0.00,,,0.00,WUHU216DAVISVP2,2013-03-07 04:11:00,
2013-03-06 23:16:00,31.8,28.6,30.16,ENE,77,2.0,5.0,88,0.00,,,0.00,WUHU216DAVISVP2,2013-03-07 04:16:00,
2013-03-06 23:21:00,31.8,28.6,30.16,SE,124,3.0,5.0,88,0.00,,,0.00,WUHU216DAVISVP2,2013-03-07 04:21:00,
2013-03-06 23:26:00,31.7,28.5,30.16,SE,124,2.0,5.0,88,0.00,,,0.00,WUHU216DAVISVP2,2013-03-07 04:26:00,
2013-03-06 23:31:00,31.7,28.5,30.16,ESE,115,1.0,5.0,88,0.00,,,0.00,WUHU216DAVISVP2,2013-03-07 04:31:00,
2013-03-06 23:36:00,31.6,28.4,30.16,East,89,2.0,5.0,88,0.00,,,0.00,WUHU216DAVISVP2,2013-03-07 04:36:00,
2013-03-06 23:41:00,31.5,28.3,30.16,SE,142,1.0,5.0,88,0.00,,,0.00,WUHU216DAVISVP2,2013-03-07 04:41:00,
2013-03-06 23:46:00,31.4,28.5,30.16,SE,141,2.0,4.0,89,0.00,,,0.00,WUHU216DAVISVP2,2013-03-07 04:46:00,
2013-03-06 23:51:00,31.4,28.5,30.16,SE,128,3.0,5.0,89,0.00,,,0.00,WUHU216DAVISVP2,2013-03-07 04:51:00,
2013-03-06 23:56:00,31.4,28.5,30.16,SE,139,2.0,5.0,89,0.00,,,0.00,WUHU216DAVISVP2,2013-03-07 04:56:00,